Location: Balmoral
(33.0667°S, 151.5833°E)
Time: 01:33:57
(UTC+00:00)

SAR-Lupe-4 - Pass Details

Date: 18 September 2020
Orbit: 482 x 484 km, 98.2° (Epoch: 09 October)

Event Time Altitude Azimuth Distance (km) Brightness Sun altitude
Rises 19:18:13 0° 166° (SSE) 2,587 7.5 -6.9°
Reaches altitude 10° 19:20:19 10° 164° (SSE) 1,697 6.6 -6.5°
Maximum altitude 19:23:58 77° 78° (ENE) 510 3.8 -5.7°
Drops below altitude 10° 19:27:33 10° 351° (N) 1,670 6.2 -5.0°
Sets 19:29:36 0° 350° (N) 2,542 7.1 -4.6°
